Weather History for Ashtabula, OH

Change the Weather History Date:

Saturday, February 15, 2014

  Actual Average (KYNG) Record (KYNG)
Temperature  
Mean Temperature 10 °F 28 °F  
Max Temperature 21 °F 36 °F 65 °F (1954)
Min Temperature 0 °F 21 °F -4 °F (1963)
Degree Days  
Heating Degree Days 54 37  
Month to date heating degree days 568  
Since 1 July heating degree days 4191  
Cooling Degree Days 0 0  
Month to date cooling degree days 0  
Year to date cooling degree days 0  
Moisture  
Dew Point 9 °F    
Average Humidity 75    
Maximum Humidity 86    
Minimum Humidity 67    
Precipitation  
Precipitation 0.00 in 0.07 in 1.63 in (1990)
Month to date precipitation 1.12  
Year to date precipitation 3.67  
Snow  
Snow 0.00 in 0.40 in - ()
Month to date snowfall 6.7  
Since 1 July snowfall 42.7  
Snow Depth -    
Sea Level Pressure  
Sea Level Pressure 29.95 in    
Wind  
Wind Speed 6 mph (WNW)    
Max Wind Speed 13 mph    
Max Gust Speed 20 mph    
Visibility 6 miles    
Events Snow    
T = Trace of Precipitation, MM = Missing Value Source: NWS Daily Summary

Daily Weather History Graph

Daily Weather History Graph

Search for Another Location

Airport:

Trip Planner

Search our weather history database for the weather conditions in past years. The results will help you decide how hot, cold, wet, or windy it might be!

Date:

Astronomy

Feb. 15, 2014 Rise Set
Actual Time 7:18 AM EST 5:56 PM EST
Civil Twilight 6:49 AM EST 6:24 PM EST
Nautical Twilight 6:17 AM EST 6:57 PM EST
Astronomical Twilight 5:45 AM EST 7:29 PM EST
Moon 6:56 PM EST (2/15) 7:15 AM EST (2/15)
Length of Visible Light 11h 34m
Length of Day
10h 37m
Full, 100% of the Moon is Illuminated
Feb 15
Full
Feb 22
Last Quarter
Mar 1
New
Mar 8
First Quarter
Mar 16
Full

Hourly Weather History & Observations

Time (EST) Temp. Windchill Dew Point Humidity Pressure Visibility Wind Dir Wind Speed Gust Speed Precip Events Conditions
12:53 AM 21.9 °F 17.2 °F 15.1 °F 75% 29.78 in 6.0 mi West 3.5 mph - N/A   Haze
1:53 AM 21.9 °F 17.2 °F 15.1 °F 75% 29.77 in 6.0 mi WNW 3.5 mph - N/A   Haze
2:15 AM 21.2 °F - 15.8 °F 80% 29.74 in 6.0 mi Calm Calm - N/A   Haze
2:53 AM 21.0 °F - 16.0 °F 81% 29.78 in 6.0 mi Calm Calm - N/A   Haze
3:18 AM 21.2 °F - 15.8 °F 80% 29.74 in 6.0 mi Calm Calm - N/A   Haze
3:53 AM 21.0 °F - 16.0 °F 81% 29.77 in 5.0 mi Calm Calm - N/A   Haze
4:53 AM 21.0 °F 16.2 °F 16.0 °F 81% 29.79 in 5.0 mi WNW 3.5 mph - N/A   Haze
5:53 AM 19.9 °F 12.1 °F 15.1 °F 81% 29.83 in 5.0 mi NW 5.8 mph - N/A   Haze
6:40 AM 19.4 °F 12.8 °F 15.8 °F 86% 29.81 in 4.0 mi NW 4.6 mph - 0.00 in Snow Light Snow
6:53 AM 19.9 °F 13.4 °F 16.0 °F 85% 29.85 in 4.0 mi NW 4.6 mph - 0.00 in   Overcast
7:53 AM 21.0 °F 11.4 °F 16.0 °F 81% 29.89 in 4.0 mi NNW 8.1 mph - 0.00 in Snow Light Snow
8:38 AM 19.4 °F 7.9 °F 12.2 °F 74% 29.88 in 6.0 mi NW 10.4 mph - 0.00 in Snow Light Snow
8:44 AM 19.4 °F 7.2 °F 12.2 °F 74% 29.88 in 8.0 mi NNW 11.5 mph - 0.00 in Snow Light Snow
8:53 AM 19.0 °F 8.2 °F 12.0 °F 74% 29.93 in 8.0 mi NNW 9.2 mph 19.6 mph 0.00 in Snow Light Snow
9:10 AM 17.6 °F 5.0 °F 12.2 °F 79% 29.90 in 9.0 mi NNW 11.5 mph 19.6 mph 0.00 in   Overcast
9:53 AM 17.1 °F 5.0 °F 10.9 °F 77% 29.96 in 5.0 mi NW 10.4 mph 17.3 mph 0.00 in Snow Light Snow
10:53 AM 17.1 °F 7.6 °F 10.0 °F 74% 29.98 in 9.0 mi NNW 6.9 mph - 0.00 in   Overcast
11:25 AM 17.6 °F 9.3 °F 10.4 °F 73% 29.94 in 3.0 mi NW 5.8 mph - 0.00 in Snow Light Snow
11:48 AM 17.6 °F 7.3 °F 10.4 °F 73% 29.94 in 2.5 mi WNW 8.1 mph - 0.00 in Snow Light Snow
11:53 AM 18.0 °F 7.7 °F 10.9 °F 74% 29.98 in 1.8 mi WNW 8.1 mph - 0.00 in Snow Light Snow
12:15 PM 17.6 °F 5.7 °F 10.4 °F 73% 29.94 in 2.0 mi WNW 10.4 mph - 0.00 in Snow Light Snow
12:26 PM 17.6 °F 5.7 °F 10.4 °F 73% 29.93 in 1.5 mi NW 10.4 mph - 0.00 in Snow Light Snow
12:53 PM 17.1 °F 4.3 °F 10.0 °F 74% 29.97 in 1.8 mi NNW 11.5 mph - 0.00 in Snow Light Snow
1:01 PM 17.6 °F 9.3 °F 10.4 °F 73% 29.93 in 3.0 mi WNW 5.8 mph - 0.00 in Snow Light Snow
1:53 PM 17.1 °F 6.6 °F 9.0 °F 71% 29.99 in 3.0 mi WNW 8.1 mph - 0.00 in Snow Light Snow
2:03 PM 15.8 °F 3.4 °F 8.6 °F 73% 29.95 in 2.0 mi NW 10.4 mph - 0.00 in Snow Light Snow
2:10 PM 15.8 °F 2.1 °F 8.6 °F 73% 29.96 in 1.5 mi NW 12.7 mph - 0.00 in Snow Light Snow
2:39 PM 15.8 °F 2.1 °F 6.8 °F 68% 29.96 in 2.5 mi NW 12.7 mph 17.3 mph 0.00 in Snow Light Snow
2:53 PM 12.9 °F 0.7 °F 6.1 °F 74% 30.02 in 2.5 mi WNW 9.2 mph - 0.00 in Snow Light Snow
3:02 PM 12.2 °F -1.8 °F 5.0 °F 73% 29.97 in 4.0 mi West 11.5 mph - 0.00 in Snow Light Snow
3:53 PM 14.0 °F 2.9 °F 5.0 °F 67% 30.03 in 10.0 mi NW 8.1 mph - 0.00 in   Mostly Cloudy
4:09 PM 12.2 °F -1.8 °F 3.2 °F 67% 29.99 in 10.0 mi NW 11.5 mph - N/A   Scattered Clouds
4:53 PM 12.0 °F -1.3 °F 3.9 °F 70% 30.05 in 10.0 mi West 10.4 mph - N/A   Mostly Cloudy
5:22 PM 12.2 °F 0.7 °F 5.0 °F 73% 30.01 in 5.0 mi WNW 8.1 mph - 0.00 in Snow Light Snow
5:53 PM 12.0 °F 0.5 °F 5.0 °F 73% 30.07 in 5.0 mi WNW 8.1 mph - 0.00 in Snow Light Snow
6:43 PM 10.4 °F -0.4 °F 3.2 °F 73% 30.04 in 10.0 mi West 6.9 mph - 0.00 in   Scattered Clouds
6:53 PM 10.0 °F 1.8 °F 3.0 °F 73% 30.09 in 10.0 mi West 4.6 mph - 0.00 in   Clear
7:10 PM 10.4 °F 2.2 °F 3.2 °F 73% 30.04 in 7.0 mi West 4.6 mph - 0.00 in Snow Light Snow
7:53 PM 10.9 °F 0.2 °F 3.9 °F 73% 30.11 in 10.0 mi West 6.9 mph - 0.00 in   Overcast
8:16 PM 10.4 °F 0.8 °F 3.2 °F 73% 30.06 in 10.0 mi West 5.8 mph - N/A   Scattered Clouds
8:53 PM 7.0 °F - 1.0 °F 77% 30.12 in 10.0 mi Calm Calm - N/A   Clear
9:53 PM 5.0 °F - -0.9 °F 76% 30.11 in 10.0 mi Calm Calm - N/A   Clear
10:53 PM -0.0 °F -7.9 °F -6.0 °F 76% 30.10 in 10.0 mi South 3.5 mph - N/A   Clear
11:53 PM 1.9 °F - -5.1 °F 72% 30.10 in 10.0 mi Calm Calm - N/A   Clear